Powrót do katalogu

COSMOS 1375 DEB

AktywnyLEO
NORAD 17090·DEBRIS·🇷🇺 Russia

Wystrzelony Jun 6, 1982 z Plesetsk Cosmodrome

Loading…

Następne Przeloty (najbliższe 24 godziny)

TLE

ŚwieżeSource: Space-Track

Epoka: Sep 13, 2026, 17:16 UTC

1 17090U 82055AC  26256.72012988 -.00000053  00000-0  26396-4 0  9994
2 17090  65.8381 357.5594 0053870 328.4922 193.4019 13.84042622 63885

Śledź COSMOS 1375 DEB w czasie rzeczywistym z AllMySat

Download on the App Store